SCP
0 0 0 0 0 0 0 0 0 0 0 0 0 0 0 0 0 0 0 1 1 1 1 1 1 1 1 1 1 1 1 1 1 1 1 1 1 1 1 1 1 1 1 1
0 0 0 0 0 0 0 0 0 0 0 0 0 0 0 0 0 0 0 1 1 1 1 1 1 1 1 1 1 1 1 1 1 1 1 1 1 1 1 1 1 1 1 1
0 0 0 0 0 0 0 0 0 0 0 0 0 0 0 0 0 0 0 0 1 1 1 1 1 1 1 1 1 1 1 1 1 1 1 1 1 1 1 1 1 1 1 1
0 0 0 0 0 0 0 0 0 0 0 0 0 0 0 0 0 0 0 0 1 1 1 1 1 1 1 1 1 2 2 2 1 1 1 1 1 1 1 1 1 1 1 1
0 0 0 0 0 0 0 0 0 0 0 0 0 0 0 0 0 0 0 0 1 1 1 1 1 1 1 1 1 2 2 2 2 1 1 1 1 1 1 1 1 1 1 1
0 0 0 0 0 0 0 0 0 0 0 0 0 0 0 0 0 0 0 0 1 1 1 1 1 1 1 1 2 2 2 2 2 2 1 1 1 1 1 1 1 1 1 1
0 0 0 0 0 0 0 0 0 0 0 0 0 0 0 0 0 0 0 0 1 1 1 1 2 2 2 2 2 2 2 2 2 2 2 2 1 1 1 1 1 1 1 1
0 0 0 0 0 0 0 0 0 0 0 0 0 0 0 0 0 0 0 0 1 1 1 1 2 2 2 2 2 2 2 2 2 2 2 2 2 1 1 1 1 1 1 1
0 0 0 0 0 0 0 0 0 0 0 0 0 0 0 0 0 0 0 1 1 1 1 1 1 2 2 2 2 2 2 2 2 2 2 2 2 2 1 1 1 1 1 1
0 0 0 0 0 0 0 0 0 0 0 0 0 0 0 0 0 0 0 1 1 1 1 1 1 2 2 2 2 3 3 2 2 2 2 2 2 2 1 1 1 1 1 1
0 0 0 0 0 0 0 0 0 0 0 0 0 0 0 0 0 0 1 1 1 1 1 2 2 2 2 2 3 3 2 2 2 2 2 2 2 2 2 1 1 1 1 1
0 0 0 0 0 0 0 0 0 0 0 0 0 0 0 0 0 0 1 1 1 1 2 2 2 2 2 3 3 3 2 2 2 2 2 2 2 2 2 1 1 1 1 1
0 0 0 0 0 0 0 0 0 0 0 0 0 0 0 0 0 1 1 1 1 1 2 2 3 3 3 3 3 2 2 2 2 2 2 2 2 2 2 1 1 1 1 1
0 0 0 0 0 0 0 0 0 0 0 0 0 0 0 1 1 1 1 1 1 2 2 2 2 3 3 3 3 2 2 2 2 2 2 2 2 2 2 1 1 1 1 1
0 0 0 0 0 0 0 0 0 0 0 0 0 0 1 1 1 1 1 1 2 2 2 2 2 2 3 3 3 2 2 2 2 2 2 2 2 2 2 1 1 1 1 1
0 0 0 0 0 0 0 0 0 0 0 0 0 0 1 1 1 1 1 1 2 2 2 2 2 2 2 2 2 2 2 2 2 2 2 2 2 2 2 1 1 1 1 1
0 0 0 0 0 0 0 0 0 0 0 0 0 1 1 1 1 1 1 1 1 1 1 2 2 2 2 2 2 2 2 2 2 2 2 2 1 1 1 1 2 2 2 1
0 0 0 0 0 0 0 0 0 0 0 0 0 1 1 1 1 1 1 1 1 1 1 1 1 2 2 2 2 2 2 2 2 2 2 2 1 1 1 2 2 2 2 2
0 0 0 0 0 0 0 0 0 0 0 0 0 1 1 1 1 1 1 1 1 1 1 1 1 2 2 2 2 2 2 2 2 2 2 2 1 1 1 1 2 2 2 2
0 0 0 0 0 0 0 0 0 0 0 0 0 1 1 1 1 1 1 1 1 1 1 1 1 1 2 2 2 2 2 2 2 2 2 2 1 1 1 1 1 1 2 2
0 0 0 0 0 0 0 0 0 0 1 0 1 1 1 1 1 1 1 1 1 1 1 1 1 1 2 2 2 2 2 2 2 2 2 2 1 1 1 1 1 1 1 1
0 0 0 0 0 0 0 0 0 1 1 1 1 1 1 1 1 1 1 1 1 1 1 1 1 2 2 2 2 2 2 2 2 2 2 1 1 1 1 1 1 1 1 1
0 0 0 0 0 0 0 0 0 1 1 1 1 1 1 1 1 1 1 1 1 1 1 1 1 2 2 2 2 2 2 2 2 2 2 1 1 1 1 1 1 1 1 1
0 0 0 0 0 0 0 0 0 0 0 0 1 1 1 1 1 1 1 1 1 1 1 1 1 2 2 2 2 2 2 2 2 2 2 1 1 1 1 1 1 1 1 1
0 0 0 0 1 0 0 0 0 0 0 1 1 1 1 1 1 1 1 1 1 1 1 1 1 1 1 1 1 1 1 1 1 1 1 1 1 1 1 1 1 1 1 1
0 0 0 1 1 1 0 0 0 0 0 1 1 1 1 1 1 1 1 1 1 1 1 1 1 1 1 1 1 1 1 1 1 1 1 1 1 1 1 1 0 0 0 0
Wind_Speed
12 11 11 9 10 10 8 8 5 3 5 4 4 5 8 8 9 9 10 10 9 9 9 9 9 10 10 9 8 7 6 5 3 2 2 2 2 1 2 2 3 3 1 0
13 14 13 10 11 10 11 10 7 5 3 3 4 4 7 8 8 9 10 11 10 10 10 9 9 9 10 10 9 7 6 5 4 3 3 2 2 2 2 1 2 2 2 0
15 11 9 10 11 11 10 9 8 6 5 5 4 5 5 7 8 9 10 11 11 10 11 11 10 10 9 10 10 8 7 6 4 3 2 2 2 1 1 1 2 1 1 1
13 12 10 11 12 12 10 9 9 8 7 6 6 4 4 6 7 8 8 10 11 12 12 12 11 10 9 9 9 8 7 6 4 4 2 3 3 2 2 1 2 1 1 1
13 12 13 13 12 11 8 7 9 11 9 8 8 6 4 7 8 8 8 8 9 11 12 13 12 10 9 9 9 8 7 6 5 4 3 3 2 1 2 1 2 1 2 2
15 12 12 12 11 10 8 8 10 10 9 10 9 7 4 5 5 6 8 9 10 10 11 12 11 10 9 8 8 8 7 6 5 4 4 3 3 2 2 1 1 1 1 1
15 15 13 11 11 10 7 8 6 7 8 9 6 5 3 5 6 7 7 8 9 10 10 11 11 11 9 9 9 8 8 7 6 5 4 3 2 3 2 2 2 2 1 1
13 12 12 11 12 10 9 10 9 8 8 7 4 4 2 4 4 5 5 6 8 8 9 10 10 10 9 9 9 9 9 7 6 5 4 3 2 2 2 2 1 1 0 0
10 10 11 11 12 12 12 11 11 11 12 9 4 2 2 3 4 3 4 5 7 7 8 8 9 10 10 9 9 9 9 7 6 6 4 4 3 2 1 1 1 1 1 1
13 11 11 11 10 13 12 11 8 9 7 9 7 4 3 4 4 2 3 5 8 7 6 7 8 9 9 9 9 8 8 7 6 5 5 4 4 3 2 1 1 1 0 1
14 13 12 10 11 11 11 11 10 8 9 8 7 3 3 4 5 5 4 5 7 7 8 6 5 7 8 9 8 8 7 7 6 5 4 3 3 3 2 2 1 1 0 0
11 11 12 13 10 11 11 10 11 9 8 9 8 3 2 3 3 3 5 6 7 6 7 7 6 6 6 7 7 6 6 6 6 4 4 3 3 3 2 2 2 1 1 1
6 9 11 12 10 10 11 11 12 12 10 9 9 2 4 3 3 4 6 7 6 5 6 6 6 6 5 5 5 5 5 5 5 5 4 3 3 3 2 2 2 2 2 2
6 10 12 13 9 9 11 12 11 11 10 10 8 4 3 2 2 4 6 7 6 6 6 5 5 6 5 5 5 4 4 4 4 4 4 3 3 2 2 2 2 2 2 3
8 12 12 14 15 15 13 11 12 12 13 12 8 5 1 2 3 4 5 6 6 5 5 5 5 5 4 4 4 3 3 3 3 3 3 3 2 2 2 1 2 2 2 2
8 10 12 14 16 17 16 13 12 12 12 11 8 3 2 4 4 4 4 4 5 4 5 5 4 4 3 4 3 2 2 3 3 3 3 2 2 1 1 1 2 2 2 2
9 9 11 13 14 15 15 12 11 9 7 8 6 1 2 4 4 3 3 3 4 4 4 3 3 2 2 3 3 3 2 3 3 3 2 2 2 2 2 2 2 2 2 2
9 7 7 11 13 16 9 7 7 6 5 2 2 3 3 3 3 4 4 5 4 2 3 3 2 2 1 2 3 2 3 3 3 3 3 2 2 2 1 2 2 2 2 2
9 7 8 10 12 13 8 6 7 6 4 4 2 1 1 3 3 5 5 4 4 2 3 2 1 2 2 2 3 3 3 2 2 2 1 1 1 1 2 2 2 2 2 3
10 7 8 10 12 11 5 6 9 7 3 3 3 2 2 2 1 3 5 5 4 4 4 3 2 2 3 3 2 2 2 2 1 1 1 1 1 2 2 3 3 2 2 3
9 9 11 11 12 7 6 8 8 5 3 5 3 2 2 3 4 5 5 5 5 4 4 4 4 3 3 3 2 1 1 1 1 1 1 1 2 2 2 2 2 2 3 3
8 8 8 8 10 4 8 6 4 4 5 6 6 5 6 6 6 6 5 4 4 3 4 4 3 3 3 2 2 1 1 1 1 1 1 1 2 3 2 1 2 2 3 3
5 4 4 4 2 2 5 5 5 4 5 5 5 5 4 4 4 4 3 3 3 3 3 3 3 3 3 2 2 1 2 1 1 1 1 1 2 2 2 2 3 2 3 3
3 3 4 3 1 2 3 4 5 5 4 4 4 3 2 2 2 2 2 2 2 2 2 2 2 2 2 2 2 2 2 1 1 1 2 2 2 3 2 2 2 2 2 2
5 3 3 3 2 3 3 3 4 4 4 4 3 3 2 2 2 2 1 1 1 1 1 2 1 1 1 1 2 1 1 1 1 2 2 2 3 2 1 1 2 2 1 2
4 3 2 2 2 3 2 2 3 2 2 3 2 3 3 2 1 1 0 1 1 1 2 1 2 2 2 1 1 2 2 1 2 2 2 2 2 1 1 0 1 2 2 2
Wind_Direction
240 242 250 252 249 266 267 268 279 233 209 202 194 177 170 170 170 167 162 162 165 165 159 155 158 156 150 146 147 150 151 149 153 152 158 159 162 158 135 137 132 134 131 158
246 242 251 260 266 261 267 268 261 257 242 229 221 199 173 175 183 171 171 168 169 165 160 161 165 161 155 153 153 153 153 155 165 170 174 169 168 162 142 134 126 130 124 69
246 252 264 270 271 269 267 269 267 265 271 254 242 241 191 188 182 172 180 172 168 172 167 166 168 167 162 159 161 162 160 158 168 168 173 158 144 172 127 135 136 134 140 159
255 261 266 266 262 266 266 271 273 268 260 258 245 246 210 199 188 178 184 174 169 172 167 167 170 172 168 161 158 154 152 153 157 160 166 177 171 171 162 161 145 157 182 211
249 249 255 259 263 270 277 292 287 286 276 264 250 242 215 199 192 180 184 175 170 167 167 167 171 169 165 158 157 151 151 153 157 167 166 177 185 160 143 153 164 186 203 228
257 251 252 258 266 272 280 283 279 277 273 256 252 251 222 194 178 169 179 175 168 161 162 161 163 156 158 154 152 149 150 155 160 173 179 181 185 174 173 185 178 216 219 219
250 246 241 247 253 249 246 264 268 262 251 250 249 251 208 159 160 165 192 174 161 159 157 156 158 155 159 159 157 155 154 159 163 171 183 186 189 189 185 200 202 244 241 170
240 244 234 234 243 252 241 237 249 266 270 270 233 226 180 134 130 145 166 165 158 154 153 151 153 151 157 161 160 159 157 162 164 170 178 181 194 202 189 200 221 247 293 67
256 253 249 234 238 245 251 249 256 264 269 278 262 214 133 112 109 131 155 151 137 144 149 149 155 157 158 165 166 161 156 162 170 172 172 175 188 209 217 201 219 220 283 255
263 269 256 235 232 234 247 263 267 264 272 276 266 231 181 153 146 175 173 148 130 131 130 148 156 157 158 162 158 153 151 160 166 168 182 180 187 194 211 202 217 219 195 328
257 266 268 250 229 242 237 245 260 275 281 284 282 287 156 170 160 169 173 121 121 129 130 135 142 140 152 152 151 153 155 162 168 173 178 185 180 190 199 199 200 236 261 286
249 260 266 264 254 245 250 251 252 254 258 270 276 273 119 126 136 131 107 96 96 99 116 123 119 117 127 135 141 146 157 165 168 171 175 188 186 189 198 209 207 214 257 267
276 261 261 260 251 242 247 253 261 267 262 259 263 234 103 96 116 124 111 105 103 101 103 115 118 115 111 112 123 138 154 162 172 174 180 191 198 195 204 218 213 208 226 248
281 264 261 266 268 267 255 252 256 265 268 263 260 253 168 130 112 102 104 110 112 105 101 99 106 103 103 107 116 129 148 153 166 176 182 186 198 199 209 220 226 220 222 229
261 264 265 272 277 273 267 261 253 252 261 269 279 272 294 101 98 95 99 108 111 105 99 93 90 95 111 111 119 125 141 148 159 165 176 182 190 189 207 225 244 246 250 247
256 272 279 271 270 273 273 267 260 260 268 272 276 280 60 80 80 85 95 98 111 112 104 97 97 99 115 125 132 139 155 153 153 160 161 154 169 181 199 232 239 248 258 275
254 257 270 273 275 277 267 270 274 272 271 276 275 290 86 92 90 110 118 107 84 90 91 96 104 103 109 137 143 157 160 155 160 160 160 156 177 195 221 249 232 251 265 278
251 257 259 265 269 264 275 301 296 295 299 322 15 59 64 68 91 92 80 76 73 65 90 96 107 100 123 138 143 155 161 161 167 169 180 177 194 208 228 254 250 252 261 260
262 250 256 264 262 261 265 301 304 295 297 331 347 63 83 101 99 84 66 71 68 58 76 92 121 128 110 114 126 141 158 162 177 186 190 191 215 229 241 254 261 264 259 260
248 236 243 254 262 268 294 312 308 290 261 4 5 30 22 76 185 99 76 67 59 55 56 52 47 66 87 83 102 151 159 154 171 209 248 239 238 245 253 259 257 263 266 262
238 237 242 252 260 265 311 317 309 278 339 355 6 52 60 58 55 79 74 64 56 56 63 54 48 57 65 64 80 105 126 166 181 214 239 248 254 253 245 253 252 254 262 269
243 241 246 258 263 270 346 335 354 11 9 7 15 38 62 75 84 84 73 58 51 49 57 58 55 55 51 49 47 30 25 1 3 312 284 284 285 284 277 256 254 247 248 259
266 284 279 269 286 33 13 15 26 28 24 20 30 34 54 68 78 84 79 65 47 38 44 55 64 55 37 24 33 13 17 23 7 307 289 289 282 274 275 258 256 258 246 260
252 286 288 302 321 9 357 16 22 19 19 28 44 26 23 70 80 80 85 76 41 18 40 49 53 50 27 3 11 29 10 360 313 282 273 264 257 258 256 262 270 277 279 285
308 290 272 267 314 356 17 5 360 359 13 33 34 18 17 26 62 65 74 80 51 25 32 28 39 31 352 10 18 16 359 330 293 283 274 267 265 267 256 282 309 289 298 271
304 311 293 293 345 318 307 339 336 347 5 4 10 21 23 26 35 40 25 51 25 18 11 2 16 5 344 338 349 344 332 315 285 277 284 285 278 277 266 239 334 350 269 227